Probability
0 0 0 0 0 0 0 0 0 0 0 0 0 0 0 0 0 0 0 0 0 0 0 0 0 0 0 0 0 0 0 0 0 0 0 0 0 0 0 0 0 0 0 0 0 0 0 0 0
0 0 0 0 0 0 0 0 0 0 0 0 0 0 0 0 0 0 0 0 0 0 0 0 0 0 0 0 0 0 0 0 0 0 0 0 0 0 0 0 0 0 0 0 0 0 0 0 0
0 0 0 0 0 0 0 0 0 0 0 0 0 0 0 0 0 0 0 0 0 0 0 0 0 0 0 0 0 0 0 0 0 0 0 0 0 0 0 0 0 0 0 0 0 0 0 0 0
0 0 0 0 0 0 0 0 0 0 0 0 0 0 0 0 0 0 0 0 0 0 0 0 0 0 0 0 0 0 0 0 0 0 0 0 0 0 0 0 0 0 0 0 0 0 0 0 0
0 0 0 0 0 0 0 0 0 0 0 0 0 0 0 0 0 0 0 0 0 0 0 0 0 0 0 0 0 0 0 0 0 0 0 0 0 0 0 0 0 0 0 0 0 0 0 0 0
0 0 0 0 0 0 0 0 0 0 0 0 0 0 0 0 0 0 0 0 0 0 0 0 0 0 0 0 0 0 0 0 0 0 0 0 0 0 0 0 0 0 0 0 0 0 0 0 0
0 0 0 0 0 0 0 0 0 0 0 0 0 0 0 0 0 0 0 0 0 0 0 0 0 0 0 0 0 0 0 0 0 0 0 0 0 0 0 0 0 0 0 0 0 0 0 0 0
0 0 0 0 0 0 0 0 0 0 0 0 0 0 0 0 0 0 0 0 0 0 0 0 0 0 0 0 0 0 0 0 0 0 0 0 0 0 0 0 0 0 0 0 0 0 0 0 0
0 0 0 0 0 0 0 0 0 0 0 0 0 0 0 0 0 0 0 0 0 0 0 0 0 0 0 0 0 0 0 0 0 0 0 0 0 0 0 0 0 0 0 0 0 0 0 0 0
0 0 0 0 0 0 0 0 0 0 0 0 0 0 0 0 0 0 0 0 0 0 0 0 0 0 0 0 0 0 0 0 0 0 0 0 0 0 0 0 0 0 0 0 0 0 0 0 0
0 0 0 0 0 0 0 0 0 0 0 0 0 0 0 0 0 0 0 0 0 0 0 0 0 0 0 0 0 0 0 0 0 0 0 0 0 0 0 0 0 0 0 0 0 0 0 0 0
0 0 0 0 0 0 0 0 0 0 0 0 0 0 0 0 0 0 0 0 0 0 0 0 0 0 0 0 0 0 0 0 0 0 0 0 0 0 0 0 0 0 0 0 0 0 0 0 0
0 0 0 0 0 0 0 0 0 0 0 0 0 0 0 0 0 0 0 0 0 0 0 0 0 0 0 0 0 0 0 0 0 0 0 0 0 0 0 0 0 0 0 0 0 0 0 0 0
0 0 0 0 0 0 0 0 0 0 0 0 0 0 0 0 0 0 0 0 0 0 0 0 0 0 0 0 0 0 0 0 0 0 0 0 0 0 0 0 0 0 0 0 0 0 0 0 0
0 0 0 0 0 0 0 0 0 0 0 0 0 0 0 0 0 0 0 0 0 0 0 0 0 0 0 0 0 0 0 0 0 0 0 0 0 0 0 0 0 0 0 0 0 0 0 0 0
0 0 0 0 0 0 0 0 0 0 0 0 0 0 0 0 0 0 0 0 0 0 0 0 0 0 0 0 0 0 0 0 0 0 0 0 0 0 0 0 0 0 0 0 0 0 0 0 0
0 0 0 0 0 0 0 0 0 0 0 0 0 0 0 0 0 0 0 0 0 0 0 0 0 0 0 0 0 0 0 0 0 0 0 0 0 0 0 0 0 0 0 0 0 0 0 0 0
0 0 0 0 0 0 0 0 0 0 0 0 0 0 0 0 0 0 0 0 0 0 0 0 0 0 0 0 0 0 0 0 0 0 0 0 0 0 0 0 0 0 0 0 0 0 0 0 0
0 0 0 0 0 0 0 0 0 0 0 0 0 0 0 0 0 0 0 0 0 0 0 0 0 0 0 0 0 0 0 0 0 0 0 0 0 0 0 0 0 0 0 0 0 0 0 0 0
0 0 0 0 0 0 0 0 0 0 0 0 0 0 0 0 0 0 0 0 0 0 0 0 0 0 0 0 0 0 0 0 0 0 0 0 0 0 0 0 0 0 0 0 0 0 0 0 0
0 0 0 0 0 0 0 0 0 0 0 0 0 0 0 0 0 0 0 0 0 0 0 0 0 0 0 0 0 0 0 0 0 0 0 0 0 0 0 0 0 0 0 0 0 0 0 0 0
0 0 0 0 0 0 0 0 0 0 0 0 0 0 0 0 0 0 0 0 0 0 0 0 0 0 0 0 0 0 0 0 0 0 0 0 0 0 0 0 0 0 0 0 0 0 0 0 0
0 0 0 0 0 0 0 0 0 0 0 0 0 0 0 0 0 0 0 0 0 0 0 0 0 0 0 0 0 0 0 0 0 0 0 0 0 0 0 0 0 0 0 0 0 0 0 0 0
0 0 0 0 0 0 0 0 0 0 0 0 0 0 0 0 0 0 0 0 0 0 0 0 0 0 0 0 0 0 0 0 0 0 0 0 0 0 0 0 0 0 0 0 0 0 0 0 0
0 0 0 0 0 0 0 0 0 0 0 0 0 0 0 0 0 0 0 0 0 0 0 0 0 0 0 0 0 0 0 0 0 0 0 0 0 0 0 0 0 0 0 0 0 0 0 0 0
0 0 0 0 0 0 0 0 0 0 0 0 0 0 0 0 0 0 0 0 0 0 0 0 0 0 0 0 0 0 0 0 0 0 0 0 0 0 0 0 0 0 0 0 0 0 0 0 0
0 0 0 0 0 0 0 0 0 0 0 0 0 0 0 0 0 0 0 0 0 0 0 0 0 0 0 0 0 0 0 0 0 0 0 0 0 0 0 0 0 0 0 0 0 0 0 0 0
0 0 0 0 0 0 0 0 0 0 0 0 0 0 0 0 0 0 0 0 0 0 0 0 0 0 0 0 0 0 0 0 0 0 0 0 0 0 0 0 0 0 0 0 0 0 0 0 0
0 0 0 0 0 0 0 0 0 0 0 0 0 0 0 0 0 0 0 0 0 0 0 0 0 0 0 0 0 0 0 0 0 0 0 0 0 0 0 0 0 0 0 0 0 0 0 0 0
0 0 0 0 0 0 0 0 0 0 0 0 0 0 0 0 0 0 0 0 0 0 0 0 0 0 0 0 0 0 0 0 0 0 0 0 0 0 0 0 0 0 0 0 0 0 0 0 0
Wind_Speed
2 2 3 3 5 4 3 1 2 5 5 4 4 4 4 4 3 3 6 11 13 16 14 15 15 13 11 10 9 9 9 9 10 10 11 12 12 13 14 14 15 16 16 17 18 18 18 19 19
1 2 4 4 6 6 2 2 4 4 4 6 5 4 5 5 1 4 9 12 15 15 13 14 16 14 12 11 10 9 9 9 9 10 10 11 11 12 13 13 14 14 15 16 16 17 17 18 19
1 2 3 4 7 7 4 1 3 5 5 6 7 5 5 2 5 6 10 16 15 14 13 14 16 15 13 11 10 9 9 9 9 9 9 10 10 11 12 12 13 13 14 14 15 16 16 17 18
3 3 4 7 8 4 4 1 4 8 7 6 6 6 5 2 3 6 14 18 16 15 14 14 16 15 13 12 10 10 9 9 9 8 8 9 9 10 10 11 11 12 12 13 14 15 15 16 17
3 3 7 9 9 3 2 1 6 9 9 9 8 6 5 6 5 10 16 18 16 15 13 13 17 15 14 13 11 10 10 9 9 8 8 8 8 9 9 9 10 10 11 12 13 14 14 15 16
2 4 9 11 11 4 3 5 7 9 8 7 9 7 4 8 10 13 17 16 15 15 14 12 17 16 15 13 12 11 10 10 9 8 8 7 7 7 7 8 8 9 10 11 12 13 13 14 15
3 5 11 13 12 10 4 7 8 9 11 10 7 7 5 9 11 13 16 15 14 14 14 12 14 15 15 14 13 12 11 10 10 9 8 7 6 6 6 6 7 7 8 9 10 11 12 13 14
3 6 12 13 14 14 4 8 5 9 8 4 7 9 3 9 14 14 15 14 14 14 14 14 12 13 13 13 14 13 12 11 11 10 8 8 6 6 5 4 6 6 7 8 9 10 10 11 12
3 8 13 14 13 12 6 8 6 4 6 6 8 5 5 11 17 16 15 14 15 15 15 14 14 13 12 11 13 13 13 12 11 10 10 7 5 5 4 4 4 5 5 6 7 8 8 7 8
4 9 14 8 8 7 6 8 6 7 11 10 10 10 7 13 18 19 20 21 21 21 19 16 15 14 13 10 9 9 9 10 9 8 9 6 5 4 3 5 4 4 4 4 5 5 4 4 4
5 9 7 4 4 4 5 7 6 9 14 15 14 16 16 17 19 21 22 22 22 20 19 18 16 15 14 10 9 7 6 7 8 9 9 6 6 5 5 4 5 4 3 2 1 0 2 4 4
5 5 4 4 2 4 6 5 8 14 16 6 10 10 18 20 22 23 24 23 20 20 21 19 18 15 15 12 10 9 7 7 7 9 10 8 5 6 5 4 4 4 3 2 1 1 2 3 4
6 4 4 5 5 7 7 11 10 17 17 11 6 10 19 21 23 23 22 20 20 20 21 21 20 18 15 13 10 10 10 9 9 9 10 10 7 7 6 5 5 5 4 3 2 1 1 3 4
2 4 6 6 6 5 8 12 10 19 13 15 16 17 19 21 23 21 21 22 22 22 22 21 21 20 17 14 12 11 10 9 9 9 11 12 9 8 7 7 6 5 5 4 3 2 2 3 4
2 6 8 7 6 4 6 14 15 18 9 14 18 19 20 21 21 24 24 23 23 22 22 22 21 21 20 18 16 11 10 10 10 10 12 13 11 10 8 7 7 6 6 6 4 4 3 4 5
4 6 6 4 6 3 6 16 13 7 11 17 18 19 19 21 23 23 23 22 22 21 21 22 18 21 21 18 16 12 11 12 11 10 11 14 14 12 10 8 8 7 6 6 5 4 5 5 6
5 7 9 5 6 4 8 19 20 7 11 18 19 19 19 20 22 23 23 22 21 21 21 21 22 22 21 19 15 14 12 12 11 11 11 13 15 14 11 9 8 8 7 6 6 6 6 6 6
7 10 12 11 3 7 12 22 27 20 17 22 22 21 20 21 23 21 21 21 21 20 20 21 21 21 20 16 14 12 13 13 12 12 12 15 14 15 13 10 11 10 8 8 8 8 7 6 6
9 12 17 16 5 7 16 24 28 25 19 21 22 21 21 22 20 16 18 20 20 20 21 21 21 21 18 15 15 15 15 13 13 13 15 17 16 16 15 11 12 11 10 10 10 9 9 8 6
8 12 16 12 1 7 15 24 26 20 17 15 17 18 17 18 16 15 15 17 20 22 22 22 22 22 22 17 15 13 13 12 13 12 15 18 18 17 15 16 12 12 11 12 12 11 8 7 7
9 10 11 11 8 6 10 15 11 10 7 8 9 11 12 12 13 12 14 17 18 21 23 20 23 23 23 20 13 11 11 10 12 15 15 18 19 19 18 18 15 14 13 12 13 13 13 9 8
9 5 8 8 8 7 5 11 13 9 10 8 11 11 10 8 7 8 10 14 18 19 18 20 21 21 21 21 18 20 17 17 17 14 14 16 20 20 20 19 18 16 14 14 14 14 12 12 9
5 2 3 5 6 8 5 7 11 7 8 14 15 15 14 11 8 6 7 11 14 15 16 17 18 20 20 21 21 21 20 17 13 14 17 18 18 21 21 20 18 17 15 16 15 14 14 12 11
2 3 3 3 4 6 2 5 9 4 7 12 14 15 15 13 11 8 6 7 10 12 14 15 17 19 20 21 22 24 24 21 18 18 16 15 14 16 22 21 19 18 16 17 16 15 16 14 14
4 6 5 4 4 3 2 6 12 10 8 8 11 13 13 13 13 12 10 7 7 10 14 15 18 20 21 22 23 24 25 23 23 20 18 16 14 15 20 20 20 18 18 17 16 16 16 16 16
2 5 6 7 7 6 3 9 10 11 9 7 6 8 12 15 15 14 12 9 7 8 11 15 18 19 19 21 22 21 22 17 16 19 17 17 14 15 17 20 20 20 19 18 16 14 15 14 15
3 3 3 6 7 8 8 7 13 10 3 3 10 14 16 17 17 15 13 11 9 7 8 12 15 16 17 19 19 19 20 19 18 17 17 15 15 13 18 19 20 20 20 19 18 14 16 14 15
3 1 4 5 7 8 8 7 8 8 11 14 15 16 17 17 16 15 13 12 10 9 7 7 11 13 14 15 16 14 17 18 17 16 19 18 17 16 17 18 20 20 20 19 18 15 15 16 15
5 5 6 6 6 8 9 8 5 10 13 13 14 16 16 16 15 14 13 12 11 9 7 6 6 9 10 12 14 15 15 16 17 17 18 17 17 17 18 18 19 20 20 20 19 18 17 17 16
5 6 7 7 8 8 11 12 7 10 9 9 14 15 13 12 12 12 12 12 12 11 9 7 6 7 8 9 11 13 14 14 16 17 17 17 17 17 18 18 19 20 20 20 20 20 19 18 18
Wind_Direction
175 219 231 231 232 245 291 66 169 161 173 145 153 197 226 236 272 22 111 156 148 153 158 159 156 152 146 138 129 118 105 94 86 80 76 73 67 64 60 57 55 52 51 50 48 46 45 44 45
200 228 221 231 251 259 278 153 197 182 128 139 174 210 228 232 57 110 151 162 158 156 161 159 156 156 152 145 138 127 114 103 93 86 80 76 70 65 62 57 55 52 51 49 47 45 43 42 42
195 256 229 229 248 270 299 157 183 128 146 176 185 220 252 227 162 168 161 162 164 161 162 157 160 160 157 152 145 135 124 112 101 92 86 80 73 67 64 59 55 52 50 49 47 44 41 39 39
235 206 219 243 250 271 310 95 158 159 173 205 208 207 215 203 157 155 153 163 168 166 165 163 165 164 162 158 152 144 133 122 112 101 92 86 79 70 67 62 56 52 50 48 47 44 41 37 36
241 234 231 242 255 254 231 185 181 194 188 193 208 230 207 154 144 151 161 168 173 169 169 170 169 169 167 165 160 153 143 133 123 112 101 93 86 77 70 66 59 53 50 48 46 44 40 36 35
214 240 248 254 260 251 213 188 189 217 207 186 209 235 206 139 163 163 166 173 177 173 174 176 175 175 173 172 168 162 154 145 134 124 114 102 94 86 76 71 64 55 50 48 46 43 39 34 33
251 252 260 269 275 269 225 173 207 219 213 200 203 224 170 169 169 165 170 176 180 179 180 182 183 179 180 180 176 170 164 156 146 136 126 114 102 94 81 73 71 60 52 50 47 44 40 33 31
285 261 262 263 271 278 197 178 225 227 222 185 203 231 198 158 159 165 171 179 185 188 189 187 190 184 182 182 181 177 172 166 157 146 137 126 114 106 94 90 78 68 55 52 49 45 41 34 31
244 254 261 266 270 280 179 196 202 222 220 199 219 248 62 133 154 165 174 186 192 196 197 195 193 187 186 184 180 181 179 175 168 159 151 152 159 149 147 97 88 80 60 54 51 45 39 35 35
227 255 265 280 275 282 200 219 199 202 219 219 218 208 152 158 169 178 186 192 196 198 198 196 197 192 189 186 185 187 183 176 181 172 167 177 175 170 161 123 106 93 75 67 52 46 35 19 20
233 259 280 259 264 270 230 225 214 222 232 227 224 205 178 179 186 193 198 200 200 198 196 198 198 196 194 190 188 186 183 177 185 187 183 185 182 177 189 179 166 166 175 170 127 203 27 18 15
248 254 267 270 244 242 241 236 226 228 246 254 238 208 179 189 196 201 204 205 201 200 200 198 198 199 199 197 194 193 190 188 189 192 193 190 190 196 194 200 193 195 194 197 219 344 15 355 346
240 263 251 254 249 248 254 245 255 250 249 240 224 194 194 201 205 209 210 208 204 204 203 201 199 200 199 201 201 200 200 197 195 192 195 198 197 198 198 200 199 203 200 203 213 240 306 308 313
277 263 260 255 244 244 256 260 249 259 247 233 224 217 211 211 211 210 211 210 208 206 205 202 201 201 200 201 203 203 203 200 200 195 197 200 204 201 200 202 203 205 204 206 214 234 269 284 288
252 273 261 229 229 248 270 262 236 253 234 233 229 228 224 222 217 215 212 211 209 207 205 203 202 202 203 204 206 206 203 200 202 200 200 200 205 206 204 206 204 204 200 203 212 217 245 264 272
238 255 268 184 201 207 252 273 271 257 230 242 241 235 229 226 223 222 218 215 212 208 206 204 200 203 204 205 206 207 205 204 204 202 200 202 205 207 207 209 209 202 200 208 213 223 238 247 260
231 274 292 289 195 212 240 275 285 269 241 253 253 246 237 234 228 224 220 215 212 209 205 204 202 203 204 205 206 209 208 208 208 204 203 202 204 206 208 212 209 201 205 208 211 219 230 244 252
296 295 291 292 245 228 254 272 283 280 252 259 263 259 249 242 236 225 218 216 212 210 206 204 203 205 203 203 207 210 213 213 212 209 207 203 203 205 208 211 210 204 207 208 209 217 220 236 251
287 281 285 292 296 252 268 278 285 289 281 267 264 264 260 253 249 233 218 212 210 208 207 204 203 203 200 200 204 206 210 211 213 213 211 207 206 204 207 210 208 206 211 212 212 216 224 226 230
256 274 284 295 235 256 288 286 285 288 286 283 280 279 275 269 257 236 221 211 209 208 207 206 205 202 202 203 204 208 212 215 214 212 215 212 209 206 206 210 208 206 211 214 213 213 221 225 217
256 261 285 300 311 246 297 291 289 304 309 304 297 291 291 282 271 248 226 219 214 212 209 207 206 204 204 203 202 204 212 218 214 214 214 213 211 209 207 210 210 208 209 212 211 209 216 222 215
276 278 269 283 297 303 333 304 303 327 336 10 15 11 359 341 305 272 243 226 220 219 215 213 210 209 206 201 204 202 205 211 214 212 213 212 211 212 210 210 210 210 209 213 211 210 213 220 227
275 359 260 271 276 284 252 262 287 312 347 10 12 15 16 10 352 314 268 242 231 221 216 216 215 214 209 207 209 211 218 223 221 216 216 214 211 213 211 210 209 210 210 212 211 208 211 214 223
239 240 207 209 238 254 219 256 287 317 347 346 353 2 9 5 359 347 314 263 240 223 216 214 215 217 212 211 212 215 220 222 221 218 216 214 212 211 213 211 210 209 209 209 209 209 211 214 220
230 277 278 255 240 254 129 252 261 284 316 321 326 340 355 1 1 354 342 313 261 229 218 214 215 218 213 213 215 219 223 224 225 223 219 215 214 212 212 208 210 208 208 207 206 208 212 214 218
235 273 298 303 298 301 226 248 265 290 306 304 314 338 355 360 355 346 338 323 297 257 229 220 219 221 216 216 219 222 224 226 230 228 223 220 219 218 213 210 211 209 206 205 204 208 211 214 218
229 225 321 288 281 275 258 263 285 280 277 347 351 357 357 352 346 341 337 333 321 298 258 233 229 228 223 221 221 223 224 225 230 231 229 229 226 221 216 213 213 211 207 204 203 208 210 212 217
293 236 205 248 279 278 266 258 258 290 317 336 345 350 348 346 343 340 338 337 332 322 303 266 242 238 233 227 225 227 227 228 231 231 231 229 228 224 220 216 214 212 208 205 204 207 210 212 216
180 194 224 249 262 278 285 265 254 282 314 329 337 341 341 342 341 340 339 339 338 337 330 306 270 252 243 234 230 230 231 231 231 232 234 232 230 225 223 219 216 213 209 205 205 207 207 212 217
243 239 221 250 256 246 277 280 271 283 308 323 327 334 340 343 344 344 344 345 347 346 342 328 301 272 256 245 239 237 236 233 233 235 235 234 232 228 224 221 218 216 212 207 205 207 207 210 216